Content
SEND FEEDBACK

Daily
Averages
Monthly
Summary
United States of America

GOSHEN, INDIANA


Home > North America > United States > Indiana
Elevation: 984 feet     Latitude: 41 38N     Longitude: 085 05W

WEATHER
 
SELECT A DAY
Number of Records: 429,725;   Date Range: 3/27/97 - 7/7/14
 
SHARE

PRINT THIS DATA

[ ← Previous Day ]
WEATHER ALMANAC - JANUARY 3, 2013
[ Next Day → ]
[ °C ]   °F
Weather ElementAverageHighLow
Temperature22.9 °F29.1 °F (5:15 pm)12.9 °F (1:15 am)
Dewpoint16 °F24.1 °F (4:54 pm)2.3 °F (1:55 am)
Humidity75.2 %86 % (1:14 pm)59 % (12:34 am)
Barometer30.11 in30.17 in (7:55 pm)30.07 in (5:34 am)
Wind Speed9.6 mph15 mph (5:15 pm)
Wind Gust21.9 mph (6:15 pm)
Weather ElementAverage
Visibility8.1 mi
Wind DirectionWSW (232.6 °)

Weather ElementTotal
Precipitation---
Heating Degree Days44 (Base 65)
Averaged from 69 records on January 3, 2013
WEATHER CONDITIONS BREAKOUT
WIND DIRECTION BREAKOUT
WEATHER BY HOUR - JANUARY 3, 2013
[ °C ]   °F
Local TimeTemperatureDewpointHumidityBarometerVisibilityWind DirectionWind SpeedGust SpeedPrecipitationEventsConditions
12:34 AM14.9 °F3.0 °F59 %30.12 in10.0 miSSW (200°)3.5 mphClear
12:55 AM14.5 °F3.0 °F60 %30.12 in10.0 miSSW (210°)5.8 mphClear
1:15 AM12.9 °F3.0 °F65 %30.12 in10.0 miSSW (210°)3.5 mphClear
1:34 AM13.1 °F2.7 °F63 %30.11 in10.0 miSSW (200°)4.6 mphClear
1:55 AM13.1 °F2.3 °F62 %30.11 in10.0 miSSW (200°)3.5 mphClear
2:15 AM13.1 °F2.7 °F63 %30.10 in10.0 miSSW (200°)3.5 mphClear
2:34 AM13.5 °F2.5 °F62 %30.11 in10.0 miCalmClear
2:55 AM13.5 °F2.7 °F62 %30.11 in10.0 miSouth (190°)3.5 mphScattered Clouds
3:15 AM14.0 °F3.2 °F62 %30.11 in10.0 miSSW (210°)5.8 mphMostly Cloudy
3:34 AM14.0 °F3.9 °F64 %30.10 in10.0 miSSW (210°)4.6 mphMostly Cloudy
3:55 AM14.9 °F4.6 °F64 %30.10 in10.0 miSSW (210°)6.9 mphOvercast
4:14 AM15.6 °F5.0 °F63 %30.09 in10.0 miSW (220°)4.6 mphOvercast
4:34 AM15.8 °F5.4 °F63 %30.09 in10.0 miSW (220°)6.9 mphOvercast
4:55 AM16.5 °F6.4 °F65 %30.08 in10.0 miSW (220°)5.8 mphOvercast
5:14 AM17.1 °F7.0 °F65 %30.08 in10.0 miSW (230°)5.8 mphOvercast
5:34 AM18.0 °F7.9 °F65 %30.07 in10.0 miSW (220°)10.4 mphOvercast
5:55 AM18.5 °F8.6 °F65 %30.07 in10.0 miSW (230°)9.2 mphOvercast
6:14 AM18.9 °F9.5 °F67 %30.07 in10.0 miWSW (240°)6.9 mphOvercast
6:34 AM19.0 °F10.4 °F69 %30.07 in10.0 miSW (230°)10.4 mphOvercast
6:55 AM19.4 °F11.3 °F71 %30.08 in7.0 miWSW (240°)9.2 mphSnowLight Snow
7:14 AM19.4 °F12.2 °F74 %30.08 in10.0 miSW (230°)9.2 mphOvercast
7:35 AM19.4 °F12.7 °F75 %30.07 in10.0 miSW (220°)9.2 mphOvercast
7:54 AM19.4 °F12.9 °F76 %30.07 in10.0 miSW (230°)6.9 mphOvercast
8:35 AM20.3 °F13.8 °F76 %30.07 in10.0 miSW (230°)9.2 mphOvercast
8:54 AM20.8 °F14.0 °F75 %30.08 in7.0 miSW (230°)10.4 mphOvercast
9:15 AM21.2 °F14.9 °F77 %30.08 in7.0 miWSW (240°)10.4 mph19.6 mphOvercast
9:34 AM21.6 °F15.4 °F77 %30.08 in7.0 miWSW (240°)9.2 mph16.1 mphOvercast
9:54 AM21.9 °F15.8 °F77 %30.09 in7.0 miWSW (240°)10.4 mphOvercast
10:15 AM22.1 °F16.5 °F79 %30.09 in7.0 miSW (230°)10.4 mphOvercast
10:34 AM22.6 °F17.1 °F79 %30.10 in7.0 miWSW (240°)12.7 mphOvercast
10:55 AM23.0 °F17.6 °F80 %30.10 in5.0 miWSW (250°)10.4 mphHaze
11:15 AM23.4 °F18.3 °F81 %30.10 in5.0 miWSW (240°)9.2 mphHaze
11:34 AM23.5 °F18.5 °F81 %30.10 in5.0 miWSW (240°)10.4 mphHaze
11:55 AM24.1 °F19.4 °F82 %30.09 in5.0 miWSW (240°)11.5 mphHaze
12:14 PM24.8 °F20.1 °F82 %30.09 in4.0 miWSW (240°)11.5 mphHaze
12:35 PM24.8 °F20.5 °F84 %30.08 in4.0 miWSW (240°)11.5 mph18.4 mphHaze
12:55 PM25.3 °F21.2 °F84 %30.08 in4.0 miWSW (240°)13.8 mph18.4 mphOvercast
1:14 PM25.7 °F21.9 °F86 %30.07 in3.0 miWSW (250°)12.7 mphOvercast
1:35 PM26.2 °F22.3 °F85 %30.07 in3.0 miWSW (240°)10.4 mph18.4 mphOvercast
1:55 PM26.6 °F22.6 °F85 %30.07 in4.0 miWSW (240°)12.7 mph18.4 mphOvercast
2:14 PM27.0 °F22.6 °F84 %30.08 in5.0 miWSW (240°)10.4 mph19.6 mphHaze
2:35 PM27.3 °F22.8 °F83 %30.08 in5.0 miWSW (240°)11.5 mph17.3 mphOvercast
2:54 PM27.5 °F23.0 °F83 %30.08 in5.0 miWSW (240°)11.5 mphOvercast
3:14 PM27.9 °F23.4 °F83 %30.09 in5.0 miWSW (240°)11.5 mphHaze
3:35 PM28.0 °F23.5 °F83 %30.10 in5.0 miWSW (240°)9.2 mph18.4 mphHaze
3:54 PM28.4 °F23.7 °F83 %30.10 in5.0 miWSW (250°)11.5 mphOvercast
4:34 PM28.9 °F23.9 °F81 %30.11 in5.0 miWSW (250°)11.5 mphHaze
4:54 PM28.9 °F24.1 °F82 %30.11 in5.0 miWSW (240°)11.5 mphSnowLight Snow
5:15 PM29.1 °F23.7 °F80 %30.12 in7.0 miWSW (250°)15.0 mphOvercast
5:34 PM29.1 °F23.0 °F78 %30.12 in10.0 miWSW (250°)13.8 mphOvercast
5:54 PM29.1 °F22.8 °F77 %30.13 in10.0 miWest (260°)13.8 mph19.6 mphOvercast
6:15 PM28.9 °F22.8 °F78 %30.14 in10.0 miWest (260°)13.8 mph21.9 mphOvercast
6:34 PM28.9 °F22.8 °F78 %30.15 in10.0 miWest (260°)11.5 mphOvercast
6:54 PM28.8 °F23.0 °F79 %30.15 in10.0 miWSW (250°)10.4 mphOvercast
7:15 PM28.4 °F23.0 °F80 %30.16 in10.0 miWest (260°)11.5 mphOvercast
7:34 PM28.4 °F23.2 °F81 %30.16 in10.0 miWest (260°)12.7 mphOvercast
7:55 PM28.0 °F22.6 °F80 %30.17 in7.0 miWSW (250°)12.7 mph18.4 mphOvercast
8:15 PM27.9 °F22.1 °F79 %30.17 in10.0 miWest (260°)11.5 mph18.4 mphOvercast
8:34 PM27.9 °F21.7 °F78 %30.17 in10.0 miWest (260°)11.5 mphOvercast
8:55 PM27.5 °F21.7 °F79 %30.17 in10.0 miWSW (250°)12.7 mphOvercast
9:15 PM27.7 °F21.7 °F78 %30.17 in10.0 miWSW (250°)10.4 mphOvercast
9:34 PM27.9 °F21.7 °F78 %30.17 in10.0 miWSW (250°)12.7 mph17.3 mphOvercast
9:55 PM27.5 °F21.7 °F79 %30.16 in10.0 miWSW (240°)10.4 mphOvercast
10:14 PM27.5 °F21.9 °F80 %30.17 in10.0 miWSW (250°)10.4 mphOvercast
10:34 PM27.5 °F21.9 °F80 %30.17 in10.0 miWSW (250°)9.2 mphOvercast
10:55 PM27.5 °F21.9 °F80 %30.17 in7.0 miWSW (240°)9.2 mphOvercast
11:14 PM27.5 °F21.7 °F79 %30.17 in7.0 miWSW (240°)12.7 mph16.1 mphOvercast
11:34 PM27.5 °F21.2 °F77 %30.16 in10.0 miWSW (240°)10.4 mphOvercast
11:55 PM27.5 °F21.2 °F77 %30.16 in10.0 miWSW (240°)10.4 mphOvercast
Hourly data recorded from KOEB, located miles away from Goshen, Indiana







STORIES FROM OUR PARTNERS